Tillbaka till svenska Fidonet
English   Information   Debug  
FILM   0/18
FNEWS_PUBLISH   4800
FN_SYSOP   42074
FN_SYSOP_OLD1   71952
FTP_FIDO   0/2
FTSC_PUBLIC   0/13902
FUNNY   0/4886
GENEALOGY.EUR   0/71
GET_INFO   105
GOLDED   0/408
HAM   3638/16493
HOLYSMOKE   0/6791
HOT_SITES   0/1
HTMLEDIT   0/71
HUB203   466
HUB_100   264
HUB_400   39
HUMOR   0/29
IC   0/2851
INTERNET   0/424
INTERUSER   0/3
IP_CONNECT   719
JAMNNTPD   0/233
JAMTLAND   0/47
KATTY_KORNER   0/41
LAN   0/16
LINUX-USER   0/19
LINUXHELP   0/1155
LINUX   0/22274
LINUX_BBS   0/957
mail   18.68
mail_fore_ok   249
MENSA   0/341
MODERATOR   0/102
MONTE   0/992
MOSCOW_OKLAHOMA   0/1245
MUFFIN   0/783
MUSIC   0/321
N203_STAT   938
N203_SYSCHAT   313
NET203   321
NET204   69
NET_DEV   0/10
NORD.ADMIN   0/101
NORD.CHAT   0/2572
NORD.FIDONET   189
NORD.HARDWARE   0/28
NORD.KULTUR   0/114
NORD.PROG   0/32
NORD.SOFTWARE   0/88
NORD.TEKNIK   0/58
NORD   0/453
OCCULT_CHAT   0/93
OS2BBS   0/787
OS2DOSBBS   0/580
OS2HW   0/42
OS2INET   0/37
OS2LAN   0/134
OS2PROG   0/36
OS2REXX   0/113
OS2USER-L   207
OS2   0/4820
OSDEBATE   7137/18996
PASCAL   0/490
PERL   0/457
PHP   0/45
POINTS   0/405
POLITICS   0/29554
POL_INC   0/14731
PSION   103
R20_ADMIN   1132
R20_AMATORRADIO   0/2
R20_BEST_OF_FIDONET   15
R20_CHAT   0/895
R20_DEPP   0/3
R20_DEV   400
R20_ECHO2   1712
R20_ECHOPRES   0/35
R20_ESTAT   0/719
R20_FIDONETPROG...
...RAM.MYPOINT
  0/2
R20_FIDONETPROGRAM   0/22
R20_FIDONET   0/248
R20_FILEFIND   0/24
R20_FILEFOUND   0/22
R20_HIFI   0/3
R20_INFO2   3604
R20_INTERNET   0/12940
R20_INTRESSE   0/60
R20_INTR_KOM   0/99
R20_KANDIDAT.CHAT   42
R20_KANDIDAT   28
R20_KOM_DEV   112
R20_KONTROLL   0/13360
R20_KORSET   0/18
R20_LOKALTRAFIK   0/24
R20_MODERATOR   0/1852
R20_NC   76
R20_NET200   245
R20_NETWORK.OTH...
...ERNETS
  0/13
R20_OPERATIVSYS...
...TEM.LINUX
  0/44
R20_PROGRAMVAROR   0/1
R20_REC2NEC   534
R20_SFOSM   0/341
R20_SF   0/108
R20_SPRAK.ENGLISH   0/1
R20_SQUISH   107
R20_TEST   2
R20_WORST_OF_FIDONET   20
RAR   0/9
RA_MULTI   106
RA_UTIL   0/162
REGCON.EUR   0/2066
REGCON   0/13
SCIENCE   0/1206
SF   0/239
SHAREWARE_SUPPORT   0/5146
SHAREWRE   0/14
SIMPSONS   0/169
STATS_OLD1   0/2539.065
STATS_OLD2   0/2530
STATS_OLD3   0/2395.095
STATS_OLD4   0/1692.25
SURVIVOR   0/495
SYSOPS_CORNER   0/3
SYSOP   0/84
TAGLINES   0/112
TEAMOS2   0/4530
TECH   0/2617
TEST.444   0/105
TRAPDOOR   0/19
TREK   0/755
TUB   0/290
UFO   0/40
UNIX   0/1316
USA_EURLINK   0/102
USR_MODEMS   0/1
VATICAN   0/2740
VIETNAM_VETS   0/14
VIRUS   0/378
VIRUS_INFO   0/201
VISUAL_BASIC   0/473
WHITEHOUSE   0/5187
WIN2000   0/101
WIN32   0/30
WIN95   3296/4291
WIN95_OLD1   65762/70272
WINDOWS   0/1517
WWB_SYSOP   0/419
WWB_TECH   0/810
ZCC-PUBLIC   0/1
ZEC   4

 
4DOS   0/134
ABORTION   0/7
ALASKA_CHAT   0/506
ALLFIX_FILE   0/1313
ALLFIX_FILE_OLD1   0/7997
ALT_DOS   0/152
AMATEUR_RADIO   0/1039
AMIGASALE   0/14
AMIGA   0/331
AMIGA_INT   0/1
AMIGA_PROG   0/20
AMIGA_SYSOP   0/26
ANIME   0/15
ARGUS   0/924
ASCII_ART   0/340
ASIAN_LINK   0/651
ASTRONOMY   0/417
AUDIO   0/92
AUTOMOBILE_RACING   0/105
BABYLON5   0/17862
BAG   135
BATPOWER   0/361
BBBS.ENGLISH   0/382
BBSLAW   0/109
BBS_ADS   0/5290
BBS_INTERNET   0/507
BIBLE   0/3563
BINKD   0/1119
BINKLEY   0/215
BLUEWAVE   0/2173
CABLE_MODEMS   0/25
CBM   0/46
CDRECORD   0/66
CDROM   0/20
CLASSIC_COMPUTER   0/378
COMICS   0/15
CONSPRCY   0/899
COOKING   40405
COOKING_OLD1   0/24719
COOKING_OLD2   0/40862
COOKING_OLD3   0/37489
COOKING_OLD4   0/35496
COOKING_OLD5   9370
C_ECHO   0/189
C_PLUSPLUS   0/31
DIRTY_DOZEN   0/201
DOORGAMES   0/2221
DOS_INTERNET   0/196
duplikat   6102
ECHOLIST   0/18295
EC_SUPPORT   0/318
ELECTRONICS   0/359
ELEKTRONIK.GER   1534
ENET.LINGUISTIC   0/13
ENET.POLITICS   0/4
ENET.SOFT   0/11701
ENET.SYSOP   34219
ENET.TALKS   0/32
ENGLISH_TUTOR   0/2000
EVOLUTION   0/1335
FDECHO   0/217
FDN_ANNOUNCE   0/7068
FIDONEWS   24798
FIDONEWS_OLD1   0/49742
FIDONEWS_OLD2   0/35949
FIDONEWS_OLD3   0/30874
FIDONEWS_OLD4   0/37224
FIDO_SYSOP   12913
FIDO_UTIL   0/180
FILEFIND   0/209
FILEGATE   0/212
Möte HAM, 16493 texter
 lista första sista föregående nästa
Text 2787, 745 rader
Skriven 2009-02-13 23:30:19 av Amsat List (1:323/120.0)
Ärende: [keps]  orb09044.amsa
=============================
[keps]  orb09044.amsa

Return-Path: <keps-bounces@amsat.org>
X-Rcpt: craig.healy@chowda.com
X-UIDL: 1234585006.37933

SB KEPS @ AMSAT  $ORB09044.O
Orbital Elements  09044.OSCAR

HR AMSAT ORBITAL ELEMENTS FOR OSCAR SATELLITES
FROM WA5QGD FORT WORTH,TX February 13, 2009
Send Subscribe/unsubscribe to KEPS at 
http://www.amsat.org/mailman/listinfo/keps
BID: ORB09044.O
TO ALL RADIO AMATEURS BT

Satellite: AO-07
Catalog number: 07530
Epoch time:      09043.98982839
Element set:    0404
Inclination:      101.4412 deg
RA of node:       073.1700 deg
Eccentricity:    0.0011949
Arg of perigee:   151.3305 deg
Mean anomaly:     208.8427 deg
Mean motion:   12.53575274 rev/day
Decay rate:       -2.7e-07 rev/day^2
Epoch rev:           56715
Checksum:              292

Satellite: AO-10
Catalog number: 14129
Epoch time:      09043.93319956
Element set:     620
Inclination:      026.0001 deg
RA of node:       171.6735 deg
Eccentricity:    0.5971314
Arg of perigee:   197.7162 deg
Mean anomaly:     126.2516 deg
Mean motion:   02.05870549 rev/day
Decay rate:      -2.53e-06 rev/day^2
Epoch rev:           19306
Checksum:              292

Satellite: UO-11
Catalog number: 14781
Epoch time:      09043.92534367
Element set:    0886
Inclination:      098.1262 deg
RA of node:       087.1564 deg
Eccentricity:    0.0009615
Arg of perigee:   023.7596 deg
Mean anomaly:     336.4043 deg
Mean motion:   14.79693887 rev/day
Decay rate:        1.9e-07 rev/day^2
Epoch rev:           33945
Checksum:              342

Satellite: RS-15
Catalog number: 23439
Epoch time:      09044.69850152
Element set:     180
Inclination:      064.8151 deg
RA of node:       104.5102 deg
Eccentricity:    0.0145994
Arg of perigee:   075.5694 deg
Mean anomaly:     286.1380 deg
Mean motion:   11.27553086 rev/day
Decay rate:       -3.9e-07 rev/day^2
Epoch rev:           58219
Checksum:              310

Satellite: FO-29
Catalog number: 24278
Epoch time:      09044.72381737
Element set:     970
Inclination:      098.5724 deg
RA of node:       295.2349 deg
Eccentricity:    0.0350276
Arg of perigee:   310.3602 deg
Mean anomaly:     046.7432 deg
Mean motion:   13.52942099 rev/day
Decay rate:       -1.6e-07 rev/day^2
Epoch rev:           61705
Checksum:              320

Satellite: SO-33
Catalog number: 25509
Epoch time:      09043.98828685
Element set:    0389
Inclination:      031.4350 deg
RA of node:       034.7697 deg
Eccentricity:    0.0354647
Arg of perigee:   332.5216 deg
Mean anomaly:     025.7092 deg
Mean motion:   14.28239141 rev/day
Decay rate:        6.1e-07 rev/day^2
Epoch rev:           53806
Checksum:              320

Satellite: AO-40
Catalog number: 26609
Epoch time:      09042.97811223
Element set:    0192
Inclination:      008.7069 deg
RA of node:       033.2734 deg
Eccentricity:    0.7948891
Arg of perigee:   174.8156 deg
Mean anomaly:     207.8055 deg
Mean motion:   01.25583595 rev/day
Decay rate:      -1.82e-06 rev/day^2
Epoch rev:           03805
Checksum:              325

Satellite: VO-52
Catalog number: 28650
Epoch time:      09043.91613507
Element set:    0154
Inclination:      097.7587 deg
RA of node:       109.5170 deg
Eccentricity:    0.0028307
Arg of perigee:   076.4946 deg
Mean anomaly:     283.9396 deg
Mean motion:   14.81551311 rev/day
Decay rate:      -1.64e-06 rev/day^2
Epoch rev:           20424
Checksum:              312

Satellite: PO-63
Catalog number: 29712
Epoch time:      09044.67278100
Element set:     235
Inclination:      097.8451 deg
RA of node:       103.9511 deg
Eccentricity:    0.0013589
Arg of perigee:   320.8314 deg
Mean anomaly:     039.1918 deg
Mean motion:   14.80440404 rev/day
Decay rate:       4.56e-06 rev/day^2
Epoch rev:           11319
Checksum:              289

/EX
SB KEPS @ AMSAT  $ORB09044.D
Orbital Elements  09044.MICROS

HR AMSAT ORBITAL ELEMENTS FOR THE MICROSATS
FROM WA5QGD FORT WORTH,TX February 13, 2009
Send Subscribe/unsubscribe to KEPS at 
http://www.amsat.org/mailman/listinfo/keps
BID: ORB09044.D
TO ALL RADIO AMATEURS BT

Satellite: AO-16
Catalog number: 20439
Epoch time:      09043.95483876
Element set:    0535
Inclination:      098.2626 deg
RA of node:       018.1102 deg
Eccentricity:    0.0010782
Arg of perigee:   175.5713 deg
Mean anomaly:     184.5564 deg
Mean motion:   14.31815637 rev/day
Decay rate:       -2.3e-07 rev/day^2
Epoch rev:           99537
Checksum:              319

Satellite: LO-19
Catalog number: 20442
Epoch time:      09044.52130747
Element set:     455
Inclination:      098.2279 deg
RA of node:       026.3796 deg
Eccentricity:    0.0012030
Arg of perigee:   171.1017 deg
Mean anomaly:     189.0387 deg
Mean motion:   14.32052656 rev/day
Decay rate:        4.0e-08 rev/day^2
Epoch rev:           99561
Checksum:              292

Satellite: AO-27
Catalog number: 22825
Epoch time:      09043.95454500
Element set:    0177
Inclination:      098.4214 deg
RA of node:       001.3923 deg
Eccentricity:    0.0007502
Arg of perigee:   269.9641 deg
Mean anomaly:     090.0690 deg
Mean motion:   14.29258553 rev/day
Decay rate:        5.8e-07 rev/day^2
Epoch rev:           80216
Checksum:              297

Satellite: IO-26
Catalog number: 22826
Epoch time:      09043.89657486
Element set:    0896
Inclination:      098.4137 deg
RA of node:       002.1394 deg
Eccentricity:    0.0008087
Arg of perigee:   267.5444 deg
Mean anomaly:     092.4820 deg
Mean motion:   14.29509118 rev/day
Decay rate:       -1.3e-07 rev/day^2
Epoch rev:           80225
Checksum:              324

